[[{"header":{"parameterUnit":"m.s-1","parameterCategory":2,"la1":30.2992,"la2":30.254,"lo1":-89.0895,"lo2":-89.0443,"dy":0.0025,"dx":0.0025,"nx":19,"ny":19,"refTime":"2026-05-08T21:00:00:Z","depth":"0","parameterNumber":2,"parameterNumberName":"U-component_of_CURRENTS"},"data":[0,0,0,-0.0951,-0.0954,-0.1135,-0.1136,-0.1369,-0.1371,0,0,0,0,0,0,0,0,0,0,0,-0.0882,-0.0883,-0.095,-0.0954,-0.1135,-0.1136,-0.1369,-0.1371,0,0,0,0,0,0,0,0,0,0,0,-0.0882,-0.0883,-0.0884,-0.0955,-0.1135,-0.1136,-0.1368,-0.1236,0,0,0,0,0,0,0,0,0,0,-0.1062,-0.0991,-0.0883,-0.0884,-0.0956,-0.1135,-0.1136,-0.123,-0.1244,-0.1282,0,-0.1296,0,-0.1334,-0.1385,-0.1385,0,0,0,-0.0973,-0.0979,-0.1026,-0.0884,-0.0957,-0.1134,-0.1059,-0.1238,-0.1254,-0.1301,-0.1299,-0.1309,-0.1338,-0.1386,-0.1387,-0.1637,-0.1638,0,0,-0.0963,-0.0924,-0.1014,-0.1035,-0.0987,-0.1053,-0.1064,-0.1248,-0.1259,-0.13,-0.1314,-0.1342,-0.1387,-0.1389,-0.1636,-0.1637,0,0,0,-0.0922,-0.0917,-0.096,-0.1025,-0.1056,-0.1058,-0.1071,-0.1251,-0.1264,-0.1317,-0.1345,-0.1389,-0.1391,-0.1635,-0.1636,-0.1654,0,0,0,-0.0917,-0.0892,-0.0955,-0.0935,-0.1052,-0.1156,-0.1069,-0.1251,-0.1273,-0.1343,-0.1389,-0.1393,-0.1633,-0.1635,-0.1651,-0.1632,0,0,0,-0.0877,-0.0889,-0.0903,-0.0932,-0.1003,-0.1153,-0.1179,-0.1257,-0.129,-0.1386,-0.1394,-0.1632,-0.1635,-0.1648,-0.1629,-0.1621,0,0,0,-0.0841,-0.0875,-0.0902,-0.0963,-0.1001,-0.1155,-0.1178,-0.1294,-0.1377,-0.139,-0.1633,-0.1636,-0.1647,-0.1627,-0.1619,-0.1338,-0.1322,0,0,-0.0867,-0.0877,-0.0919,-0.0948,-0.1074,-0.1132,-0.1296,-0.1395,-0.1435,-0.1573,-0.1579,-0.1652,-0.1629,-0.162,-0.1501,-0.1479,0,0,0,-0.0918,-0.0938,-0.0987,-0.1062,-0.1173,-0.1296,-0.1403,-0.1469,-0.1597,-0.1494,-0.1705,-0.169,-0.1683,-0.1512,-0.1498,-0.1196,-0.1649,-0.1649,-0.1649,-0.0902,-0.0969,-0.1046,-0.1147,-0.1253,-0.1424,-0.1531,-0.1642,-0.1669,-0.1733,-0.1744,-0.1803,-0.1626,-0.161,-0.1307,-0.1805,-0.1805,-0.1805,-0.1805,-0.0926,-0.0964,-0.1068,-0.1153,-0.1298,-0.1428,-0.1655,-0.1704,-0.1831,-0.1838,-0.183,-0.159,-0.1593,-0.1276,-0.1807,-0.1807,-0.1807,-0.1806,-0.1806,-0.0892,-0.0918,-0.0967,-0.1088,-0.1226,-0.1408,-0.1534,-0.1701,-0.1813,-0.1849,-0.1624,-0.1619,-0.1299,-0.1825,-0.1825,-0.1825,-0.1825,-0.1825,-0.1824,-0.082,-0.0881,-0.0894,-0.1024,-0.1079,-0.1214,-0.1453,-0.1535,-0.1587,-0.161,-0.1607,-0.1269,-0.1808,-0.176,-0.1823,-0.1824,-0.1824,-0.1824,-0.1824,-0.0773,-0.0773,-0.0793,-0.0825,-0.0941,-0.0961,-0.1192,-0.1228,-0.1325,-0.1279,-0.0955,-0.1483,-0.1435,-0.1444,-0.1389,-0.1353,-0.1353,-0.1353,-0.1352,-0.0706,-0.072,-0.0695,-0.0709,-0.0765,-0.0852,-0.0754,-0.0776,-0.0679,-0.0505,-0.0598,-0.0489,-0.0522,-0.0418,-0.045,-0.0374,-0.0082,-0.008,-0.0079,-0.0659,-0.0658,-0.0612,-0.0627,-0.0671,-0.0671,-0.0489,-0.0283,-0.0034,-0.0009,-0.0238,-0.0292,-0.0126,-0.0201,-0.0039,-0.0108,0.0014,0,0]},{"header":{"parameterUnit":"m.s-1","parameterCategory":2,"la1":30.2992,"la2":30.254,"lo1":-89.0895,"lo2":-89.0443,"dy":0.0025,"dx":0.0025,"nx":19,"ny":19,"refTime":"2026-05-08T21:00:00:Z","depth":"0","parameterNumber":3,"parameterNumberName":"V-component_of_CURRENTS"},"data":[0,0,0,-0.0359,-0.036,-0.0384,-0.0384,-0.0385,-0.0385,0,0,0,0,0,0,0,0,0,0,0,-0.0352,-0.0352,-0.0359,-0.036,-0.0384,-0.0384,-0.0385,-0.0385,0,0,0,0,0,0,0,0,0,0,0,-0.0352,-0.0352,-0.0352,-0.036,-0.0384,-0.0384,-0.0385,-0.0374,0,0,0,0,0,0,0,0,0,0,-0.0354,-0.0347,-0.0352,-0.0352,-0.036,-0.0384,-0.0384,-0.0374,-0.0375,-0.0367,0,-0.0375,0,-0.0381,-0.0385,-0.0385,0,0,0,-0.0357,-0.0346,-0.0359,-0.0352,-0.0361,-0.0384,-0.0372,-0.0374,-0.0375,-0.0369,-0.0376,-0.0376,-0.0381,-0.0385,-0.0385,-0.0409,-0.0409,0,0,-0.0356,-0.0349,-0.0358,-0.036,-0.0372,-0.0371,-0.0373,-0.0375,-0.0374,-0.0376,-0.0376,-0.0381,-0.0385,-0.0385,-0.0409,-0.0409,0,0,0,-0.0354,-0.0348,-0.036,-0.0359,-0.0366,-0.0372,-0.0374,-0.0374,-0.038,-0.0376,-0.0381,-0.0385,-0.0385,-0.0408,-0.0409,-0.0469,0,0,0,-0.0353,-0.0347,-0.036,-0.0355,-0.0367,-0.0373,-0.0372,-0.038,-0.0381,-0.0381,-0.0385,-0.0385,-0.0408,-0.0408,-0.0466,-0.049,0,0,0,-0.035,-0.0346,-0.0352,-0.0355,-0.0367,-0.0373,-0.0379,-0.0381,-0.0384,-0.0385,-0.0385,-0.0408,-0.0408,-0.0464,-0.0486,-0.0505,0,0,0,-0.0337,-0.0356,-0.0352,-0.0381,-0.0367,-0.0414,-0.038,-0.0401,-0.0407,-0.0385,-0.0408,-0.0409,-0.0464,-0.0484,-0.0503,-0.0337,-0.0333,0,0,-0.0357,-0.0358,-0.0379,-0.0376,-0.0429,-0.041,-0.0459,-0.0444,-0.0412,-0.0404,-0.0404,-0.0467,-0.0486,-0.0505,-0.0377,-0.0372,0,0,0,-0.0383,-0.0396,-0.0414,-0.0441,-0.0469,-0.0497,-0.0486,-0.0475,-0.0464,-0.0419,-0.0464,-0.0474,-0.0484,-0.0379,-0.0376,-0.0177,-0.0412,-0.0412,-0.0412,-0.0378,-0.0411,-0.0456,-0.0499,-0.0531,-0.0554,-0.0567,-0.0547,-0.0515,-0.0513,-0.0521,-0.0573,-0.0463,-0.0458,-0.0256,-0.052,-0.052,-0.052,-0.052,-0.0405,-0.0431,-0.0486,-0.054,-0.0583,-0.062,-0.0637,-0.0617,-0.0614,-0.0573,-0.058,-0.0445,-0.0457,-0.0243,-0.0524,-0.0524,-0.0523,-0.0523,-0.0522,-0.0386,-0.0408,-0.0452,-0.0536,-0.0606,-0.0652,-0.0698,-0.0696,-0.0661,-0.0675,-0.0535,-0.0531,-0.0343,-0.0672,-0.0672,-0.0672,-0.0672,-0.0672,-0.0673,-0.034,-0.0394,-0.0443,-0.0536,-0.0591,-0.0667,-0.0726,-0.0729,-0.0654,-0.0582,-0.0579,-0.0317,-0.0619,-0.0613,-0.0676,-0.0675,-0.0675,-0.0674,-0.0674,-0.0313,-0.0338,-0.0406,-0.0465,-0.06,-0.0645,-0.0721,-0.0652,-0.0637,-0.0559,-0.0202,-0.052,-0.048,-0.0479,-0.0469,-0.0491,-0.0491,-0.0491,-0.0491,-0.0277,-0.0302,-0.0378,-0.0462,-0.057,-0.0637,-0.0567,-0.0447,-0.0196,0.0007,-0.0019,0.0086,0.0069,0.0146,0.0132,0.0157,0.0293,0.0294,0.0295,-0.0256,-0.0289,-0.0324,-0.0425,-0.0555,-0.0595,-0.0445,-0.0111,0.0275,0.034,0.022,0.0187,0.0348,0.0307,0.0433,0.0398,0.044,0,0]}],[{"header":{"parameterUnit":"m.s-1","parameterCategory":2,"la1":30.2992,"la2":30.254,"lo1":-89.0895,"lo2":-89.0443,"dy":0.0025,"dx":0.0025,"nx":19,"ny":19,"refTime":"2026-05-08T21:00:00:Z","depth":"2","parameterNumber":2,"parameterNumberName":"U-component_of_CURRENTS"},"data":[0,0,0,-0.0997,-0.0998,-0.1031,-0.1031,-0.1005,-0.1004,0,0,0,0,0,0,0,0,0,0,0,-0.0985,-0.0985,-0.0997,-0.0998,-0.1031,-0.1031,-0.1005,-0.1004,0,0,0,0,0,0,0,0,0,0,0,-0.0985,-0.0985,-0.0985,-0.0998,-0.1031,-0.1031,-0.1005,-0.0997,0,0,0,0,0,0,0,0,0,0,-0.0974,-0.0972,-0.0985,-0.0985,-0.0998,-0.1031,-0.1031,-0.0998,-0.0998,-0.097,0,-0.0976,0,-0.0988,-0.1001,-0.1001,0,0,0,-0.0999,-0.0972,-0.0981,-0.0986,-0.0999,-0.1031,-0.1016,-0.0998,-0.0998,-0.097,-0.0976,-0.0976,-0.0987,-0.1001,-0.1,-0.1014,-0.1015,0,0,-0.0997,-0.0989,-0.0981,-0.0981,-0.1007,-0.1015,-0.1017,-0.0999,-0.0997,-0.0976,-0.0976,-0.0987,-0.1,-0.1,-0.1014,-0.1014,0,0,0,-0.0991,-0.0987,-0.0999,-0.0981,-0.0992,-0.1016,-0.1019,-0.0998,-0.1002,-0.0976,-0.0987,-0.1,-0.0999,-0.1013,-0.1014,-0.1087,0,0,0,-0.099,-0.0984,-0.0998,-0.0993,-0.0993,-0.1004,-0.1017,-0.1003,-0.1002,-0.0987,-0.1,-0.0999,-0.1012,-0.1013,-0.1084,-0.1101,0,0,0,-0.0984,-0.0983,-0.0988,-0.0992,-0.1006,-0.1005,-0.1009,-0.1004,-0.1008,-0.1001,-0.0999,-0.1012,-0.1013,-0.1081,-0.1097,-0.1101,0,0,0,-0.0973,-0.0993,-0.0987,-0.1013,-0.1006,-0.1042,-0.1009,-0.1037,-0.1039,-0.1,-0.1012,-0.1014,-0.108,-0.1094,-0.1099,-0.0748,-0.0731,0,0,-0.0996,-0.0995,-0.1013,-0.1009,-0.1041,-0.1038,-0.1077,-0.1068,-0.1045,-0.1012,-0.1013,-0.1085,-0.1096,-0.11,-0.0822,-0.0801,0,0,0,-0.1019,-0.1028,-0.1037,-0.1054,-0.1073,-0.1096,-0.1095,-0.11,-0.1109,-0.1051,-0.109,-0.1094,-0.1095,-0.0879,-0.0864,-0.102,-0.102,-0.1019,-0.1019,-0.102,-0.104,-0.1069,-0.1094,-0.1114,-0.1141,-0.1168,-0.1171,-0.1143,-0.1171,-0.1159,-0.1217,-0.0989,-0.0973,-0.1171,-0.1171,-0.1172,-0.1172,-0.1172,-0.1048,-0.1066,-0.1092,-0.1132,-0.1156,-0.119,-0.1226,-0.1236,-0.1257,-0.1233,-0.123,-0.0972,-0.096,-0.1178,-0.1177,-0.1176,-0.1175,-0.1175,-0.1175,-0.1042,-0.1056,-0.1089,-0.114,-0.1186,-0.1222,-0.1239,-0.1287,-0.1308,-0.1329,-0.1051,-0.1044,-0.1238,-0.1319,-0.1319,-0.1319,-0.132,-0.132,-0.132,-0.1019,-0.1054,-0.1077,-0.1143,-0.1161,-0.1198,-0.125,-0.1232,-0.1136,-0.1085,-0.1081,-0.1265,-0.1261,-0.1245,-0.1322,-0.1321,-0.1321,-0.1321,-0.1321,-0.0993,-0.1015,-0.1036,-0.1055,-0.1088,-0.1021,-0.1082,-0.0887,-0.0903,-0.0772,-0.0924,-0.0933,-0.0863,-0.0869,-0.0843,-0.0812,-0.0812,-0.0812,-0.0812,-0.0956,-0.0978,-0.0969,-0.0963,-0.0955,-0.0925,-0.0643,-0.0472,-0.0456,-0.0452,-0.0469,-0.0363,-0.0388,-0.0289,-0.0309,-0.0271,-0.0092,-0.0091,-0.0091,-0.0915,-0.0925,-0.0886,-0.0899,-0.0877,-0.0751,-0.0381,-0.0055,0.0004,-0.0079,-0.0518,-0.073,-0.0612,-0.0637,-0.0515,-0.0536,-0.0486,0,0]},{"header":{"parameterUnit":"m.s-1","parameterCategory":2,"la1":30.2992,"la2":30.254,"lo1":-89.0895,"lo2":-89.0443,"dy":0.0025,"dx":0.0025,"nx":19,"ny":19,"refTime":"2026-05-08T21:00:00:Z","depth":"2","parameterNumber":3,"parameterNumberName":"V-component_of_CURRENTS"},"data":[0,0,0,0.0221,0.0222,0.0293,0.0294,0.0483,0.0484,0,0,0,0,0,0,0,0,0,0,0,0.0188,0.0188,0.0221,0.0222,0.0293,0.0294,0.0482,0.0484,0,0,0,0,0,0,0,0,0,0,0,0.0189,0.0188,0.0188,0.0222,0.0293,0.0294,0.0482,0.0409,0,0,0,0,0,0,0,0,0,0,0.033,0.0262,0.0188,0.0188,0.0222,0.0293,0.0294,0.0405,0.0414,0.0471,0,0.0457,0,0.0471,0.0497,0.0498,0,0,0,0.0245,0.0254,0.0286,0.0188,0.0223,0.0293,0.0268,0.0409,0.042,0.0483,0.046,0.0467,0.0475,0.0498,0.0499,0.0619,0.0619,0,0,0.0241,0.02,0.0278,0.0291,0.0212,0.0265,0.027,0.0415,0.0407,0.0461,0.0471,0.0478,0.05,0.0501,0.0619,0.0619,0,0,0,0.0214,0.0197,0.0224,0.0284,0.0287,0.0267,0.0272,0.0401,0.0412,0.0473,0.048,0.0501,0.0503,0.0619,0.0619,0.0473,0,0,0,0.0213,0.018,0.0221,0.0198,0.0283,0.0327,0.0254,0.0402,0.0419,0.0479,0.0501,0.0505,0.0619,0.0619,0.0477,0.0417,0,0,0,0.019,0.0178,0.018,0.0196,0.0219,0.0325,0.0345,0.0406,0.0423,0.0498,0.0505,0.0619,0.0619,0.0481,0.0424,0.0392,0,0,0,0.0159,0.0145,0.0178,0.0174,0.0218,0.028,0.0344,0.04,0.0457,0.0502,0.0619,0.0619,0.0482,0.0428,0.0396,0.0379,0.0359,0,0,0.0132,0.014,0.0146,0.0177,0.0207,0.0274,0.0296,0.0391,0.0474,0.0583,0.0586,0.0476,0.0424,0.0393,0.0363,0.0343,0,0,0,0.0133,0.0125,0.0147,0.0162,0.0225,0.0239,0.0332,0.0371,0.0437,0.0502,0.0511,0.0485,0.0469,0.0468,0.0453,0.0618,0.0618,0.0618,0.0618,0.0031,0.0079,0.0078,0.0127,0.0156,0.0225,0.0247,0.0316,0.0404,0.04,0.0391,0.0304,0.0302,0.029,0.0422,0.0421,0.042,0.042,0.042,-0.0016,-0.0021,0.0012,0.0023,0.005,0.0065,0.0145,0.0184,0.0227,0.03,0.0291,0.0346,0.0264,0.0409,0.0411,0.0412,0.0413,0.0414,0.0415,-0.0084,-0.0083,-0.0081,-0.0082,-0.0103,-0.0053,-0.0053,0.0014,0.0096,0.0083,0.0134,0.0137,0.0209,0.0083,0.0082,0.0082,0.0081,0.0081,0.0081,-0.016,-0.015,-0.0182,-0.0184,-0.0208,-0.0218,-0.0169,-0.0134,-0.0075,-0.0011,-0.001,0.0191,0.0202,0.0193,0.0074,0.0075,0.0076,0.0077,0.0077,-0.022,-0.0229,-0.0264,-0.0291,-0.0316,-0.0309,-0.0273,-0.0217,-0.0193,-0.0166,-0.0042,-0.0037,0.0018,0.0033,0.0023,-0.0133,-0.0133,-0.0133,-0.0133,-0.0278,-0.0276,-0.033,-0.0361,-0.0383,-0.0347,-0.0306,-0.0267,-0.0212,-0.0206,-0.0203,-0.0146,-0.0136,-0.0084,-0.0066,-0.0076,-0.0258,-0.0258,-0.0258,-0.0317,-0.0326,-0.0369,-0.0386,-0.0406,-0.0358,-0.0297,-0.0244,-0.0247,-0.0263,-0.0221,-0.0142,-0.0046,-0.0035,0.0063,0.0084,0.0076,0,0]}],[{"header":{"parameterUnit":"m.s-1","parameterCategory":2,"la1":30.2992,"la2":30.254,"lo1":-89.0895,"lo2":-89.0443,"dy":0.0025,"dx":0.0025,"nx":19,"ny":19,"refTime":"2026-05-08T21:00:00:Z","depth":"4","parameterNumber":2,"parameterNumberName":"U-component_of_CURRENTS"},"data":[0,0,0,-0.0388,-0.0389,-0.0429,-0.0429,-0.0487,-0.0487,0,0,0,0,0,0,0,0,0,0,0,-0.0388,-0.0388,-0.0388,-0.0389,-0.0429,-0.0429,-0.0487,-0.0487,0,0,0,0,0,0,0,0,0,0,0,-0.0388,-0.0388,-0.0389,-0.0389,-0.0429,-0.0429,-0.0487,-0.0457,0,0,0,0,0,0,0,0,0,0,-0.0419,-0.0404,-0.0388,-0.0389,-0.0389,-0.0429,-0.0429,-0.0456,-0.0459,-0.0467,0,-0.0478,0,-0.0474,-0.049,-0.0491,0,0,0,-0.0399,-0.0402,-0.0418,-0.0389,-0.0389,-0.0429,-0.0414,-0.0458,-0.0462,-0.0471,-0.0479,-0.048,-0.0475,-0.0491,-0.0491,-0.0528,-0.0528,0,0,-0.0397,-0.039,-0.0415,-0.042,-0.0406,-0.0413,-0.0415,-0.046,-0.0463,-0.0479,-0.0481,-0.0476,-0.0491,-0.0491,-0.0528,-0.0528,0,0,0,-0.0384,-0.0388,-0.0403,-0.0418,-0.0419,-0.0413,-0.0416,-0.0462,-0.0468,-0.0482,-0.0476,-0.0491,-0.0492,-0.0528,-0.0528,-0.0534,0,0,0,-0.0383,-0.0379,-0.0402,-0.0397,-0.0418,-0.0436,-0.0417,-0.0466,-0.047,-0.0476,-0.0491,-0.0492,-0.0528,-0.0528,-0.0533,-0.0528,0,0,0,-0.0385,-0.0379,-0.0387,-0.0397,-0.0409,-0.0436,-0.0445,-0.0467,-0.0466,-0.0491,-0.0492,-0.0528,-0.0528,-0.0533,-0.0528,-0.0532,0,0,0,-0.0371,-0.0381,-0.0387,-0.0398,-0.0408,-0.0435,-0.0445,-0.0463,-0.0483,-0.0492,-0.0528,-0.0528,-0.0533,-0.0527,-0.0532,-0.0426,0,0,0,-0.0374,-0.0381,-0.0388,-0.0394,-0.0417,-0.043,-0.0458,-0.0485,-0.0489,-0.0515,-0.0516,-0.0534,-0.0527,-0.0532,-0.0436,0,0,0,0,-0.0382,-0.0388,-0.0395,-0.0412,-0.0433,-0.0458,-0.0482,-0.0493,-0.0515,-0.0499,-0.0535,-0.0531,-0.0534,-0.0471,-0.0528,-0.0528,-0.0528,-0.0528,-0.0528,-0.0363,-0.0385,-0.0403,-0.0433,-0.0452,-0.0482,-0.0502,-0.0522,-0.0527,-0.0533,-0.0537,-0.0545,-0.048,-0.0543,-0.0543,-0.0543,-0.0543,-0.0543,-0.0543,-0.0366,-0.0375,-0.0412,-0.0436,-0.0471,-0.0497,-0.053,-0.0536,-0.0553,-0.0549,-0.0552,-0.0484,-0.0544,-0.0544,-0.0544,-0.0544,-0.0543,-0.0543,-0.0543,-0.0348,-0.0357,-0.0386,-0.0431,-0.0465,-0.0497,-0.0503,-0.0529,-0.055,-0.0554,-0.0482,-0.0548,-0.0545,-0.0552,-0.0552,-0.0552,-0.0552,-0.0552,-0.0552,-0.0313,-0.0346,-0.0368,-0.0417,-0.0435,-0.0455,-0.0483,-0.0481,-0.0508,-0.047,-0.0548,-0.0548,-0.0548,-0.0546,-0.0552,-0.0552,-0.0552,-0.0552,-0.0552,-0.0271,-0.0301,-0.0327,-0.035,-0.0389,-0.0399,-0.0433,-0.0403,-0.04,-0.0385,-0.0431,-0.0437,-0.0423,-0.0426,-0.0419,-0.0388,-0.0387,-0.0385,0,-0.0236,-0.0255,-0.0283,-0.0303,-0.0313,-0.0357,-0.0307,-0.0313,-0.0341,-0.033,-0.0428,-0.0482,-0.0484,-0.0472,-0.0473,-0.0466,0,0,0,-0.0201,-0.0223,-0.022,-0.0264,-0.0275,-0.027,-0.0291,-0.0264,-0.0342,-0.0286,-0.0352,-0.036,-0.0462,-0.0552,-0.0546,-0.0546,-0.0542,0,0]},{"header":{"parameterUnit":"m.s-1","parameterCategory":2,"la1":30.2992,"la2":30.254,"lo1":-89.0895,"lo2":-89.0443,"dy":0.0025,"dx":0.0025,"nx":19,"ny":19,"refTime":"2026-05-08T21:00:00:Z","depth":"4","parameterNumber":3,"parameterNumberName":"V-component_of_CURRENTS"},"data":[0,0,0,-0.0172,-0.0172,-0.0179,-0.0179,-0.0148,-0.0147,0,0,0,0,0,0,0,0,0,0,0,-0.0166,-0.0166,-0.0172,-0.0172,-0.0179,-0.0179,-0.0148,-0.0147,0,0,0,0,0,0,0,0,0,0,0,-0.0166,-0.0166,-0.0166,-0.0172,-0.0179,-0.0179,-0.0148,-0.0152,0,0,0,0,0,0,0,0,0,0,-0.0151,-0.0161,-0.0166,-0.0166,-0.0172,-0.0179,-0.0179,-0.0153,-0.0152,-0.0134,0,-0.0134,0,-0.0141,-0.0145,-0.0144,0,0,0,-0.0171,-0.0162,-0.0155,-0.0166,-0.0172,-0.0179,-0.0175,-0.0153,-0.0152,-0.0133,-0.0134,-0.0133,-0.014,-0.0144,-0.0144,-0.0029,-0.0028,0,0,-0.0171,-0.0175,-0.0155,-0.0154,-0.0171,-0.0175,-0.0176,-0.0153,-0.0155,-0.0134,-0.0132,-0.014,-0.0144,-0.0144,-0.003,-0.0029,0,0,0,-0.017,-0.0174,-0.0169,-0.0155,-0.016,-0.0175,-0.0176,-0.0156,-0.0151,-0.0132,-0.0139,-0.0144,-0.0143,-0.0031,-0.003,-0.008,0,0,0,-0.017,-0.0174,-0.0169,-0.0173,-0.016,-0.0166,-0.0179,-0.0153,-0.0151,-0.014,-0.0144,-0.0143,-0.0032,-0.003,-0.008,-0.0134,0,0,0,-0.0166,-0.0174,-0.0172,-0.0172,-0.0175,-0.0166,-0.0162,-0.0153,-0.0155,-0.0144,-0.0143,-0.0033,-0.0031,-0.0081,-0.0134,-0.0154,0,0,0,-0.0173,-0.018,-0.0172,-0.0181,-0.0175,-0.0169,-0.0162,-0.0164,-0.0158,-0.0144,-0.0032,-0.003,-0.0082,-0.0133,-0.0153,-0.0177,0,0,0,-0.0186,-0.0181,-0.0186,-0.018,-0.0185,-0.0168,-0.0152,-0.0146,-0.0108,-0.004,-0.0037,-0.008,-0.0134,-0.0154,-0.0043,0,0,0,0,-0.0193,-0.0198,-0.0198,-0.02,-0.0187,-0.0176,-0.0153,-0.012,-0.0065,-0.0093,-0.002,-0.0052,-0.0064,-0.0071,-0.0019,-0.0019,-0.002,-0.002,-0.002,-0.0227,-0.0218,-0.0228,-0.0214,-0.0203,-0.0172,-0.0154,-0.0091,-0.0055,-0.0016,-0.0047,-0.0037,-0.0038,0.0024,0.0024,0.0024,0.0024,0.0024,0.0024,-0.0255,-0.0262,-0.0249,-0.0256,-0.023,-0.0208,-0.0141,-0.0113,-0.0062,-0.0018,-0.0026,-0.0065,0.002,0.0021,0.0021,0.0022,0.0022,0.0022,0.0023,-0.0282,-0.0283,-0.0286,-0.0291,-0.0285,-0.0245,-0.0242,-0.0189,-0.0119,-0.0128,-0.012,-0.0071,-0.0122,-0.0124,-0.0124,-0.0125,-0.0125,-0.0125,-0.0125,-0.0306,-0.0307,-0.0331,-0.0333,-0.0342,-0.0342,-0.0311,-0.0293,-0.0232,-0.0189,-0.0148,-0.0087,-0.0082,-0.0127,-0.013,-0.0129,-0.0128,-0.0128,-0.0128,-0.0331,-0.0341,-0.0374,-0.0393,-0.0418,-0.0416,-0.0398,-0.0355,-0.0344,-0.0304,-0.0209,-0.0203,-0.0198,-0.0191,-0.024,-0.0277,-0.0277,-0.0277,0,-0.0354,-0.036,-0.0412,-0.045,-0.0477,-0.0459,-0.0449,-0.042,-0.0345,-0.0334,-0.0334,-0.0228,-0.0222,-0.0217,-0.0211,-0.0269,0,0,0,-0.0372,-0.0387,-0.0428,-0.0468,-0.05,-0.0464,-0.0443,-0.0428,-0.0347,-0.0343,-0.0287,-0.0285,-0.0219,-0.0143,-0.0123,-0.0117,-0.0189,0,0]}]]